This is the latest recevied weather packets stored in our database for station/object KF6ILA. If no packets are shown the sender has not sent any weather packets the latest 10 day(s).
| Time | Temp. | Humidity | Pressure | Rain* | Wind** | Luminosity | Snow |
|---|---|---|---|---|---|---|---|
| 1787605669 | 35.56° C | 27% | 1019.3 hPa | 0 mm | - | 1058 W/m² | - |
| 1787605372 | 35.56° C | 27% | 1019.4 hPa | 0 mm | - | 519 W/m² | - |
| 1787605075 | 35.56° C | 26% | 1019.3 hPa | 0 mm | - | 552 W/m² | - |
| 1787604482 | 37.22° C | 25% | 1019.3 hPa | 0 mm | - | 561 W/m² | - |
| 1787604184 | 37.78° C | 24% | 1019.4 hPa | 0 mm | - | 538 W/m² | - |
| 1787603887 | 38.33° C | 24% | 1019.4 hPa | 0 mm | - | 1296 W/m² | - |
| 1787603590 | 37.78° C | 24% | 1019.5 hPa | 0 mm | - | 1238 W/m² | - |
| 1787603293 | 37.78° C | 25% | 1019.2 hPa | 0 mm | - | 1143 W/m² | - |
| 1787602997 | 37.22° C | 26% | 1019.2 hPa | 0 mm | - | 1130 W/m² | - |
| 1787602699 | 37.22° C | 26% | 1019.2 hPa | 0 mm | - | 1113 W/m² | - |
| 1787602402 | 37.22° C | 27% | 1019.3 hPa | 0 mm | - | 1109 W/m² | - |
| 1787602105 | 37.22° C | 27% | 1019.3 hPa | 0 mm | - | 1055 W/m² | - |
| 1787601808 | 37.22° C | 27% | 1019.2 hPa | 0 mm | - | 1032 W/m² | - |
| 1787601511 | 37.22° C | 26% | 1019.3 hPa | 0 mm | - | 1048 W/m² | - |
| 1787601215 | 37.22° C | 27% | 1019.3 hPa | 0 mm | - | 1028 W/m² | - |
| 1787600917 | 36.67° C | 27% | 1019.4 hPa | 0 mm | - | 997 W/m² | - |
| 1787600620 | 36.67° C | 28% | 1019.5 hPa | 0 mm | - | 991 W/m² | - |
| 1787600323 | 36.11° C | 29% | 1019.6 hPa | 0 mm | - | 984 W/m² | - |
| 1787600026 | 36.67° C | 28% | 1019.7 hPa | 0 mm | - | 981 W/m² | - |
| 1787599730 | 36.11° C | 29% | 1019.8 hPa | 0 mm | - | 976 W/m² | - |
| 1787599432 | 36.11° C | 30% | 1019.8 hPa | 0 mm | - | 974 W/m² | - |
| 1787599135 | 36.11° C | 30% | 1019.9 hPa | 0 mm | - | 972 W/m² | - |
| 1787598838 | 36.67° C | 29% | 1020 hPa | 0 mm | - | 962 W/m² | - |
| 1787598541 | 36.11° C | 31% | 1020 hPa | 0 mm | - | 995 W/m² | - |
| 1787598244 | 36.11° C | 31% | 1020.1 hPa | 0 mm | - | 1020 W/m² | - |
* Rain latest hour (hover to see other rain measurements)
** Current wind speed in m/s (hover to see current wind gust speed)